Regional Weather Roundup
Issued by NWS

Home | Current Version | Previous Version | Graphics & Text | Print | Product List | Glossary On
Versions: 1 2 3 4 5 6 7 8 9 10 11 12 13 14 15 16 17 18 19 20 21 22 23 24 25 26 27
000
ASUS45 KCYS 221810
RWRWY

WYOMING REGIONAL WEATHER ROUNDUP
NATIONAL WEATHER SERVICE CHEYENNE WY
1200 PM MDT SAT APR 22 2017

NOTE:  "FAIR" INDICATES FEW OR NO CLOUDS BELOW 12,000 FEET
WITH NO SIGNIFICANT WEATHER AND/OR OBSTRUCTIONS TO VISIBILITY.

WYZ001-221900-
YELLOWSTONE NATIONAL PARK

CITY           SKY/WX    TMP DP  RH WIND       PRES   REMARKS
LK YELLOWSTONE   N/A     31  25  78 E6        30.24F WCI  25
6HR MIN TEMP:  20; 6HR MAX TEMP:  34;

W YELLOWSTONE  NOT AVBL

$$
WYZ002>013-054>058-071-098>099-221900-
NORTHERN WYOMING

CITY           SKY/WX    TMP DP  RH WIND       PRES   REMARKS
JACKSON        SUNNY     45  28  53 SW12G23   30.24F
CODY           PTSUNNY   46  34  62 S7        30.22F
GREYBULL       PTSUNNY   49  39  68 SE14      30.23F
6HR MIN TEMP:  38; 6HR MAX TEMP:  49;

WORLAND        PTSUNNY   47  40  76 S8        30.26F
6HR MIN TEMP:  40; 6HR MAX TEMP:  47;

SHERIDAN       CLOUDY    49  39  68 S3        30.25S
6HR MIN TEMP:  40; 6HR MAX TEMP:  50;

BUFFALO        CLOUDY    46  36  68 SE7       30.26S
6HR MIN TEMP:  39; 6HR MAX TEMP:  47;

GILLETTE       CLOUDY    48  38  68 CALM      30.24F
6HR MIN TEMP:  40; 6HR MAX TEMP:  48;

HULETT         CLOUDY    54  36  50 SW13      30.24F
NEWCASTLE      MOCLDY    50  34  53 S12G24    30.27S

$$
WYZ014>020-022>026-101>103-221900-
CENTRAL WYOMING

CITY           SKY/WX    TMP DP  RH WIND       PRES   REMARKS
BIG PINEY      FAIR      42  26  53 VRB5      30.28F
6HR MIN TEMP:  20; 6HR MAX TEMP:  43;

PINEDALE       MOCLDY    41  27  56 SE3       30.29S
DUBOIS         FAIR      45  19  36 NE5       30.22F
LANDER         FAIR      49  34  56 E8        30.23F
6HR MIN TEMP:  36; 6HR MAX TEMP:  49;

RIVERTON       PTSUNNY   45  34  65 VRB5      30.26F
6HR MIN TEMP:  37; 6HR MAX TEMP:  46;

CASPER         CLOUDY    45  36  70 VRB6      30.26F
6HR MIN TEMP:  36; 6HR MAX TEMP:  46; 6HR PCP: TRACE;

DOUGLAS        PTSUNNY   49  36  61 VRB3      30.27F
6HR MIN TEMP:  34; 6HR MAX TEMP:  50;


$$
WYZ021-027>030-104>119-221900-
SOUTHERN WYOMING

CITY           SKY/WX    TMP DP  RH WIND       PRES   REMARKS
EVANSTON       FAIR      46  24  42 VRB3      30.23F
6HR MIN TEMP:  25; 6HR MAX TEMP:  46;

KEMMERER         N/A     43  25  49 SE9       30.26F
FORT BRIDGER   FAIR      46  25  43 E8        30.28F
ROCK SPRINGS   FAIR      46  21  37 MISG      30.28F
6HR MIN TEMP:  28; 6HR MAX TEMP:  48;

DIXON            N/A     46  27  46 NW3       30.31F
RAWLINS        FAIR      45  23  42 CALM      30.28F
6HR MIN TEMP:  31; 6HR MAX TEMP:  46;

SARATOGA       FAIR      45  25  45 N5        30.29F
LARAMIE        FAIR      41  31  67 VRB6      30.27F
6HR MIN TEMP:  24; 6HR MAX TEMP:  41;

CHEYENNE       FAIR      43  34  70 SW8       30.30S
6HR MIN TEMP:  33; 6HR MAX TEMP:  43; 6HR PCP: TRACE;

TORRINGTON     FAIR      54  34  46 VRB7      30.25F
6HR MIN TEMP:  36; 6HR MAX TEMP:  56;

PINE BLUFFS    MOCLDY    46  34  61 SW7       30.31S

$$




USA.gov is the U.S. government's official web portal to all federal, state and local government web resources and services.